Regional Weather Roundup
Issued by NWS

Home | Current Version | Previous Version | Graphics & Text | Print | Product List | Glossary On
Versions: 1 2 3 4 5 6 7 8 9 10 11 12 13 14 15 16 17 18 19 20 21 22 23 24 25 26 27 28 29 30 31 32 33 34 35 36 37 38 39 40 41 42 43 44 45 46 47 48 49 50
000
ASUS45 KBOU 281107
RWRCO

WEATHER ROUNDUP FOR COLORADO
NATIONAL WEATHER SERVICE DENVER/BOULDER CO
400 AM MST SAT FEB 28 2015

NOTE: "FAIR" INDICATES FEW OR NO CLOUDS BELOW 12000 FEET WITH NO
SIGNIFICANT WEATHER AND/OR OBSTRUCTIONS TO VISIBILITY.

COZ001>005-013-030-031-281200-
...NORTHWEST COLORADO...

CITY           SKY/WX    TMP DP  RH WIND       PRES   REMARKS
CRAIG            N/A     18  10  71 MISG      29.78S
HAYDEN         PTCLDY    12   3  67 E13       29.77S WCI  -3
MEEKER         MOCLDY    12   7  80 CALM      29.78R
MOUNT WERNER   NOT AVBL
STEAMBOAT SPGS PTCLDY     7   0  74 CALM      29.78S
WALDEN         PTCLDY    -6 -13  71 SE5       29.77R WCI -17
$$

COZ006>008-011-281200-
...WEST CENTRAL VALLEYS...

CITY           SKY/WX    TMP DP  RH WIND       PRES   REMARKS
GRAND JUNCTION CLEAR     24  20  84 E5        29.76F WCI  18
MONTROSE       PTCLDY    15  11  83 SE8       29.80F WCI   4
EAGLE          CLOUDY    21  18  86 E7        29.83R WCI  13
RIFLE          CLEAR     20  15  81 CALM      29.80S
DELTA          PTCLDY    24  20  87 CALM      29.80F
NUCLA          PTCLDY    23  18  80 E9        29.77F WCI  13
$$

COZ017>023-064>068-281200-
...SOUTHWEST COLORADO...

CITY           SKY/WX    TMP DP  RH WIND       PRES   REMARKS
DURANGO        CLOUDY    24  23  96 E3        29.77S
CORTEZ         CLOUDY    28  27  96 CALM      29.75F
PAGOSA SPRINGS LGT SNOW  24  24 100 CALM      29.78R
TELLURIDE      PTCLDY    19  11  72 CALM      29.72F
WOLF CREEK PAS LGT SNOW   9   9 100 SW14G20   29.73S WCI  -8
$$

COZ009-010-012-014-032>034-037-058>063-281200-
...CENTRAL COLORADO...

CITY           SKY/WX    TMP DP  RH WIND       PRES   REMARKS
ASPEN          PTCLDY     5   0  79 S5        29.76R WCI  -4
BUENA VISTA    MOCLDY     6   1  82 W13       29.79S WCI -11
COPPER MTN     PTCLDY     9   0  66 S7        29.68R WCI  -3
BERTHOUD PASS  FAIR       1  -6  71 W12       29.67R WCI -15
COTTONWOOD PAS MOCLDY    14   9  79 N3        29.73S
GUNNISON       PTCLDY     9   1  72 S6        29.80F WCI  -1
KREMMLING      CLOUDY    14   9  79 CALM      29.81R
LEADVILLE      CLOUDY     4   1  88 NW3       29.73R
SALIDA         MOCLDY     8   4  86 CALM      29.88S
SUNLIGHT       PTCLDY    12   9  85 CALM        N/A
WILKERSON PASS CLOUDY     7   3  85 SW9G16    29.71R FOG     WCI  -7
$$

COZ069>075-281200-
...SAN LUIS VALLEY/SANGRE DE CRISTO MOUNTAINS...

CITY           SKY/WX    TMP DP  RH WIND       PRES   REMARKS
ALAMOSA        CLOUDY    16  12  84 CALM      29.79R
LA VETA PASS   LGT SNOW  16  12  86 MISG      29.72S
SAGUACHE       CLOUDY    21  18  86 CALM      29.79S
$$

COZ035-036-038>040-281200-
...NORTHERN COLORADO FRONT RANGE...

CITY           SKY/WX    TMP DP  RH WIND       PRES   REMARKS
DENVER INTL AP PTCLDY     7   1  76 SW5       29.86S WCI  -2
DMNS CITY PARK   N/A      6   4  90 SE1       29.87R
AURORA         CLEAR      4   0  82 S6        29.86R WCI  -7
FRONT RANGE AP NOT AVBL
ERIE MUNI ARPT PTCLDY    -2  -5  87 CALM      29.89S
BOULDER MUN AP PTCLDY     9   5  85 CALM      29.87R
CENTENNIAL     PTCLDY     3   0  87 CALM      29.84R
BROOMFIELD     PTCLDY    10   5  79 N5        29.85S WCI   2
FORT COLLINS   PTCLDY     7   1  78 CALM      29.91R
LONGMONT       CLOUDY     2  -3  79 CALM      29.92S
$$

COZ041-046-047-076>085-087-088-281200-
...PIKES PEAK/PALMER DIVIDE AND SOUTHERN FOOTHILLS...

CITY           SKY/WX    TMP DP  RH WIND       PRES   REMARKS
COLO. SPRINGS  PTCLDY     3   0  87 SW3       29.86R FOG
A. F. ACADEMY  FRZ DRZL   3   0  85 VRB2      29.81R
ELLICOTT       NOT AVBL
FALCON         PTCLDY    -1  -5  83 W6        29.80S WCI -12
FORT CARSON    CLOUDY     4   0  86 SW1       29.86R
LIMON          LGT SNOW   5   3  91 S13       29.90S FOG     WCI -12
MONUMENT HILL  PTCLDY     5   1  85 CALM      29.77R
TRINIDAD       MOCLDY     8   5  87 CALM      29.87S
$$

COZ042>045-048>051-090-091-281200-
...NORTHEAST COLORADO...

CITY           SKY/WX    TMP DP  RH WIND       PRES   REMARKS
GREELEY ARPT   PTCLDY     3  -6  66 N7        29.92R WCI  -9
AKRON          MOCLDY     9   5  84 S12       29.94S WCI  -6
BURLINGTON     CLOUDY     9   4  80 S16       30.01F WCI  -8
WRAY           CLOUDY    14   9  80 S10       30.05F WCI   2
STERLING       PTCLDY     9   3  78 SW5       29.98S WCI   0
HOLYOKE        NOT AVBL
FORT MORGAN    PTCLDY     6   1  81 S5        29.95R WCI  -3
$$

COZ086-089-092>099-281200-
...SOUTHEAST COLORADO...

CITY           SKY/WX    TMP DP  RH WIND       PRES   REMARKS
PUEBLO         MOCLDY     8   4  83 N6        29.94F WCI  -2
LA JUNTA       MOCLDY     9   5  84 W8        29.96S WCI  -3
LAMAR          MOCLDY    15  10  80 S12       30.01S WCI   2
SPRINGFIELD      N/A     11   8  88 S15       29.99F WCI  -5
$$



USA.gov is the U.S. government's official web portal to all federal, state and local government web resources and services.